Location: Schommer Observatory
(40.5200°N, 74.4500°W)
Time: 01:25:53
(UTC-05:00)

Tiangong 2 - Pass Details

Date: 12 November 2017
Orbit: 386 x 391 km, 42.8° (Epoch: 17 November)

Event Time Altitude Azimuth Distance (km) Brightness Sun altitude
Rises 18:15:45 0° 280° (W) 2,274 6.3 -17.8°
Reaches altitude 10° 18:18:06 10° 265° (W) 1,415 5.2 -18.3°
Maximum altitude 18:20:39 22° 212° (SSW) 899 3.3 -18.7°
Enters shadow 18:22:26 14° 169° (SSE) 1,173 3.5 -19.1°
